Change the Weather History Date:

Tuesday, March 11, 2014

  Actual Average (KDRO) Record (KDRO)
Temperature  
Mean Temperature 37 °F 36 °F  
Max Temperature 46 °F 51 °F 72 °F (1972)
Min Temperature 28 °F 22 °F 12 °F (1988)
Degree Days  
Heating Degree Days 28 29  
Month to date heating degree days 334  
Since 1 July heating degree days 5509  
Cooling Degree Days 0 0  
Month to date cooling degree days 0  
Year to date cooling degree days 0  
Moisture  
Dew Point 9 °F    
Average Humidity 35    
Maximum Humidity 65    
Minimum Humidity 11    
Precipitation  
Precipitation 0.00 in 0.04 in 0.73 in (1981)
Month to date precipitation 0.53  
Year to date precipitation 2.81  
Sea Level Pressure  
Sea Level Pressure 29.95 in    
Wind  
Wind Speed 5 mph (SW)    
Max Wind Speed 20 mph    
Max Gust Speed 26 mph    
Visibility 10 miles    
Events      
T = Trace of Precipitation, MM = Missing Value Source: NWS Daily Summary

Daily Weather History Graph

Daily Weather History Graph

Search for Another Location

Airport or City:

Trip Planner

Search our weather history database for the weather conditions in past years. The results will help you decide how hot, cold, wet, or windy it might be!

Date:

Astronomy

Mar. 11, 2014 Rise Set
Actual Time 7:25 AM MDT 7:11 PM MDT
Civil Twilight 6:59 AM MDT 7:37 PM MDT
Nautical Twilight 6:28 AM MDT 8:08 PM MDT
Astronomical Twilight 5:58 AM MDT 8:38 PM MDT
Moon 2:55 PM MDT (3/11) 4:15 AM MDT (3/11)
Length of Visible Light 12h 38m
Length of Day
11h 46m
Waxing Gibbous, 78% of the Moon is Illuminated
Mar 11
Waxing Gibbous
Mar 16
Full
Mar 23
Last Quarter
Mar 30
New
Apr 7
First Quarter

Hourly Weather History & Observations

Time (MDT) Temp. Windchill Dew Point Humidity Pressure Visibility Wind Dir Wind Speed Gust Speed Precip Events Conditions
12:15 AM 36.7 °F - 15.1 °F 41% 29.97 in 10.0 mi Calm Calm - N/A   Clear
12:35 AM 34.9 °F - 14.9 °F 44% 29.96 in 10.0 mi Calm Calm - N/A   Clear
12:55 AM 34.7 °F - 14.2 °F 43% 29.95 in 10.0 mi Calm Calm - N/A   Clear
1:15 AM 33.6 °F - 16.3 °F 49% 29.94 in 10.0 mi Calm Calm - N/A   Clear
1:35 AM 34.3 °F - 12.0 °F 40% 29.93 in 10.0 mi Calm Calm - N/A   Mostly Cloudy
1:55 AM 32.9 °F - 18.7 °F 56% 29.93 in 10.0 mi Calm Calm - N/A   Scattered Clouds
2:15 AM 33.3 °F - 13.3 °F 44% 29.92 in 10.0 mi Calm Calm - N/A   Clear
2:35 AM 32.4 °F - 13.6 °F 46% 29.91 in 10.0 mi Calm Calm - N/A   Clear
2:55 AM 32.0 °F - 18.3 °F 57% 29.90 in 10.0 mi Calm Calm - N/A   Clear
3:15 AM 32.0 °F - 16.3 °F 52% 29.90 in 10.0 mi Calm Calm - N/A   Clear
3:35 AM 35.2 °F - 12.2 °F 39% 29.89 in 10.0 mi Calm Calm - N/A   Clear
3:55 AM 33.1 °F 30.0 °F 16.2 °F 50% 29.89 in 10.0 mi NE 3.5 mph - N/A   Clear
4:15 AM 33.3 °F - 14.0 °F 45% 29.88 in 10.0 mi Calm Calm - N/A   Clear
4:35 AM 31.5 °F - 16.5 °F 54% 29.88 in 10.0 mi Calm Calm - N/A   Clear
4:55 AM 31.1 °F - 15.3 °F 52% 29.88 in 10.0 mi Calm Calm - N/A   Clear
5:15 AM 30.2 °F - 15.8 °F 55% 29.88 in 10.0 mi Calm Calm - N/A   Clear
5:35 AM 28.4 °F - 15.6 °F 59% 29.88 in 10.0 mi Calm Calm - N/A   Clear
5:55 AM 29.3 °F - 16.0 °F 58% 29.88 in 10.0 mi Calm Calm - N/A   Clear
6:15 AM 29.5 °F - 16.7 °F 59% 29.88 in 10.0 mi Calm Calm - N/A   Clear
6:35 AM 29.5 °F - 16.3 °F 58% 29.88 in 10.0 mi Calm Calm - N/A   Clear
6:55 AM 28.4 °F - 18.1 °F 65% 29.88 in 10.0 mi Calm Calm - N/A   Clear
7:15 AM 29.1 °F 25.4 °F 15.3 °F 56% 29.88 in 10.0 mi NE 3.5 mph - N/A   Clear
7:35 AM 28.4 °F 24.6 °F 16.3 °F 61% 29.89 in 10.0 mi NNE 3.5 mph - N/A   Clear
7:55 AM 28.6 °F - 18.3 °F 65% 29.89 in 10.0 mi Calm Calm - N/A   Clear
8:15 AM 29.5 °F - 17.6 °F 61% 29.90 in 10.0 mi Calm Calm - N/A   Clear
8:35 AM 31.6 °F 28.3 °F 20.8 °F 64% 29.90 in 10.0 mi SSW 3.5 mph - N/A   Clear
8:55 AM 35.4 °F 29.0 °F 15.8 °F 45% 29.90 in 10.0 mi SSW 8.1 mph - N/A   Clear
9:15 AM 37.9 °F 30.5 °F 14.2 °F 38% 29.90 in 10.0 mi SW 11.5 mph 17.3 mph N/A   Clear
9:35 AM 39.6 °F 31.7 °F 11.7 °F 32% 29.90 in 10.0 mi SW 13.8 mph 19.6 mph N/A   Clear
9:55 AM 40.5 °F 32.1 °F 10.0 °F 29% 29.91 in 10.0 mi SW 16.1 mph 19.6 mph N/A   Clear
10:15 AM 40.8 °F 33.3 °F 7.7 °F 26% 29.91 in 10.0 mi SW 13.8 mph 23.0 mph N/A   Clear
10:35 AM 41.2 °F 33.0 °F 7.5 °F 25% 29.91 in 10.0 mi SW 16.1 mph 23.0 mph N/A   Clear
10:55 AM 41.7 °F 32.9 °F 4.8 °F 22% 29.91 in 10.0 mi SW 19.6 mph 24.2 mph N/A   Clear
11:15 AM 42.3 °F 34.8 °F 5.2 °F 22% 29.91 in 10.0 mi SW 15.0 mph 25.3 mph N/A   Clear
11:35 AM 43.2 °F 35.6 °F 7.2 °F 23% 29.92 in 10.0 mi WSW 16.1 mph 24.2 mph N/A   Clear
11:55 AM 43.9 °F 36.8 °F 3.9 °F 19% 29.92 in 10.0 mi SSW 15.0 mph 21.9 mph N/A   Clear
12:15 PM 44.1 °F 37.4 °F -4.0 °F 13% 29.92 in 10.0 mi SW 13.8 mph 24.2 mph N/A   Clear
12:35 PM 44.2 °F 37.3 °F -2.2 °F 14% 29.92 in 10.0 mi SW 15.0 mph 24.2 mph N/A   Clear
12:55 PM 44.8 °F 37.4 °F -5.4 °F 12% 29.93 in 10.0 mi SSW 17.3 mph 23.0 mph N/A   Clear
1:15 PM 45.9 °F 38.8 °F -2.0 °F 14% 29.93 in 10.0 mi WSW 17.3 mph 23.0 mph N/A   Clear
1:35 PM 45.3 °F 40.1 °F -6.9 °F 11% 29.93 in 10.0 mi SW 10.4 mph 17.3 mph N/A   Clear
1:55 PM 46.4 °F 39.8 °F -3.6 °F 12% 29.92 in 10.0 mi SSW 16.1 mph 20.7 mph N/A   Clear
2:15 PM 45.9 °F 40.0 °F -2.2 °F 14% 29.93 in 10.0 mi SW 12.7 mph 24.2 mph N/A   Clear
2:35 PM 46.4 °F 41.1 °F -0.9 °F 14% 29.92 in 10.0 mi SW 11.5 mph 24.2 mph N/A   Clear
2:55 PM 46.0 °F 39.0 °F -2.7 °F 13% 29.93 in 10.0 mi SSW 17.3 mph 24.2 mph N/A   Clear
3:15 PM 46.0 °F 39.9 °F -2.2 °F 13% 29.93 in 10.0 mi SW 13.8 mph 23.0 mph N/A   Clear
3:35 PM 46.6 °F - -2.0 °F 13% 29.93 in 10.0 mi SW 12.7 mph 21.9 mph N/A   Clear
3:55 PM 46.6 °F - -3.6 °F 12% 29.93 in 10.0 mi SSW 13.8 mph 23.0 mph N/A   Clear
4:15 PM 46.9 °F - -2.0 °F 13% 29.93 in 10.0 mi South 17.3 mph 21.9 mph N/A   Clear
4:35 PM 46.8 °F - -5.3 °F 11% 29.93 in 10.0 mi SSW 8.1 mph 26.5 mph N/A   Clear
4:55 PM 46.9 °F - -4.4 °F 12% 29.94 in 10.0 mi WSW 5.8 mph - N/A   Clear
5:15 PM 46.4 °F 42.9 °F -0.0 °F 15% 29.95 in 10.0 mi West 6.9 mph 24.2 mph N/A   Clear
5:35 PM 45.1 °F 39.5 °F 2.1 °F 17% 29.95 in 10.0 mi SW 11.5 mph 19.6 mph N/A   Clear
5:55 PM 45.0 °F 37.9 °F -0.2 °F 15% 29.97 in 10.0 mi SW 16.1 mph 21.9 mph N/A   Clear
6:15 PM 44.6 °F 39.2 °F -1.1 °F 15% 29.98 in 10.0 mi SW 10.4 mph 17.3 mph N/A   Clear
6:35 PM 43.7 °F 36.0 °F 0.9 °F 17% 29.99 in 10.0 mi SSW 17.3 mph - N/A   Clear
6:55 PM 42.8 °F 36.6 °F 1.4 °F 18% 30.01 in 10.0 mi SSW 11.5 mph - N/A   Clear
7:15 PM 41.4 °F 36.2 °F 3.7 °F 21% 30.02 in 10.0 mi SSW 8.1 mph - N/A   Clear
7:35 PM 39.9 °F 35.1 °F 5.0 °F 23% 30.03 in 10.0 mi South 6.9 mph - N/A   Scattered Clouds
7:55 PM 36.1 °F - 10.2 °F 34% 30.05 in 10.0 mi Calm Calm - N/A   Clear
8:15 PM 36.5 °F - 9.7 °F 33% 30.05 in 10.0 mi Calm Calm - N/A   Clear
8:35 PM 34.2 °F - 11.8 °F 40% 30.06 in 10.0 mi Calm Calm - N/A   Clear
8:55 PM 32.4 °F - 13.5 °F 46% 30.07 in 10.0 mi Calm Calm - N/A   Clear
9:15 PM 31.3 °F - 16.5 °F 54% 30.07 in 10.0 mi Calm Calm - N/A   Clear
9:35 PM 29.7 °F - 15.4 °F 55% 30.09 in 10.0 mi Calm Calm - N/A   Clear
9:55 PM 29.7 °F 23.7 °F 10.6 °F 45% 30.10 in 10.0 mi NNE 5.8 mph - N/A   Clear
10:15 PM 30.2 °F 24.3 °F 9.9 °F 43% 30.11 in 10.0 mi NNE 5.8 mph - N/A   Clear
10:35 PM 30.7 °F 26.0 °F 9.7 °F 41% 30.12 in 10.0 mi NNE 4.6 mph - N/A   Clear
10:55 PM 31.1 °F - 8.4 °F 39% 30.13 in 10.0 mi Calm Calm - N/A   Mostly Cloudy
11:15 PM 32.4 °F 26.9 °F 13.8 °F 46% 30.14 in 10.0 mi NE 5.8 mph - N/A   Overcast
11:35 PM 33.1 °F 28.7 °F 14.0 °F 46% 30.14 in 10.0 mi ENE 4.6 mph - N/A   Mostly Cloudy
11:55 PM 33.1 °F 26.9 °F 14.5 °F 47% 30.14 in 10.0 mi ENE 6.9 mph - N/A   Scattered Clouds